Location: Coopersdale
(40.3556°N, 78.9372°W)
Time: 09:46:10
(UTC+00:00)

Envisat - Pass Details

Date: 26 November 2020
Orbit: 764 x 766 km, 98.1° (Epoch: 15 January)

Event Time Altitude Azimuth Distance (km) Brightness Sun altitude
Rises 10:06:49 0° 28° (NNE) 3,240 6.5 -23.9°
Reaches altitude 10° 10:09:42 10° 45° (NE) 2,309 5.9 -23.4°
Maximum altitude 10:13:29 21° 93° (E) 1,678 5.6 -22.7°
Drops below altitude 10° 10:17:15 10° 141° (SE) 2,295 6.1 -22.0°
Sets 10:20:05 0° 157° (SSE) 3,216 6.7 -21.5°
